Corning, AR

1:54 PM CST on February 26, 2017 (GMT -0600)
Corning

Weather History for K4M9 - May, 2013

Change the Weather History Date:

Monday, May 20, 2013

  Actual Average (KARG) Record (KARG)
Temperature  
Mean Temperature 80 °F -  
Max Temperature 87 °F 77 °F 91 °F (1998)
Min Temperature 73 °F 58 °F 48 °F (2002)
Cooling Degree Days 15    
Growing Degree Days 30 (Base 50)    
Moisture  
Dew Point 68 °F    
Average Humidity 69    
Maximum Humidity 88    
Minimum Humidity 49    
Precipitation  
Precipitation 0.00 in - - ()
Sea Level Pressure  
Sea Level Pressure 29.85 in    
Wind  
Wind Speed 16 mph (South)    
Max Wind Speed 21 mph    
Max Gust Speed 29 mph    
Visibility 10 miles    
Events Thunderstorm    
Averages and records for this station are not official NWS values.
T = Trace of Precipitation, MM = Missing Value Source: NWS Daily Summary

Daily Weather History Graph

Daily Weather History Graph

Search for Another Location

Airport or City:

Trip Planner

Search our weather history database for the weather conditions in past years. The results will help you decide how hot, cold, wet, or windy it might be!

Date:

Astronomy

May. 20, 2013 Rise Set
Actual Time 5:52 AM CDT 8:06 PM CDT
Civil Twilight 5:22 AM CDT 8:35 PM CDT
Nautical Twilight 4:47 AM CDT 9:11 PM CDT
Astronomical Twilight 4:08 AM CDT 9:50 PM CDT
Moon 3:22 PM CDT (5/20) 2:38 AM CDT (5/20)
Length of Visible Light 15h 12m
Length of Day
14h 14m
Waxing Gibbous, 75% of the Moon is Illuminated
May 20
Waxing Gibbous
May 24
Full
May 31
Last Quarter
Jun 8
New
Jun 16
First Quarter

Hourly Weather History & Observations

Time (CDT) Temp. Heat Index Dew Point Humidity Pressure Visibility Wind Dir Wind Speed Gust Speed Precip Events Conditions
12:15 AM 75.2 °F - 68.0 °F 78% 29.86 in 10.0 mi South 13.8 mph 20.7 mph N/A   Clear
12:35 AM 75.2 °F - 68.0 °F 78% 29.85 in 10.0 mi South 15.0 mph 21.9 mph N/A   Clear
12:55 AM 75.2 °F - 68.0 °F 78% 29.85 in 10.0 mi SSE 16.1 mph 19.6 mph N/A   Clear
1:15 AM 75.2 °F - 68.0 °F 78% 29.85 in 10.0 mi South 13.8 mph 19.6 mph N/A   Clear
1:35 AM 75.2 °F - 68.0 °F 78% 29.85 in 10.0 mi South 15.0 mph 20.7 mph N/A   Clear
1:55 AM 75.2 °F - 68.0 °F 78% 29.85 in 10.0 mi South 13.8 mph 21.9 mph N/A   Clear
2:15 AM 75.2 °F - 69.8 °F 83% 29.85 in 10.0 mi South 16.1 mph 20.7 mph N/A   Clear
2:35 AM 75.2 °F - 69.8 °F 83% 29.86 in 10.0 mi South 15.0 mph - N/A   Mostly Cloudy
2:55 AM 75.2 °F - 69.8 °F 83% 29.87 in 10.0 mi South 15.0 mph 20.7 mph N/A   Mostly Cloudy
3:15 AM 75.2 °F - 69.8 °F 83% 29.85 in 10.0 mi South 16.1 mph 23.0 mph N/A   Scattered Clouds
3:35 AM 75.2 °F - 69.8 °F 83% 29.85 in 10.0 mi South 16.1 mph 23.0 mph N/A   Clear
3:55 AM 73.4 °F - 69.8 °F 88% 29.85 in 10.0 mi South 13.8 mph 20.7 mph N/A   Clear
4:15 AM 73.4 °F - 69.8 °F 88% 29.85 in 10.0 mi South 15.0 mph - N/A   Clear
4:35 AM 73.4 °F - 69.8 °F 88% 29.84 in 9.0 mi SSW 17.3 mph 20.7 mph N/A   Clear
4:55 AM 75.2 °F - 69.8 °F 83% 29.85 in 10.0 mi South 17.3 mph 26.5 mph N/A   Clear
5:15 AM 73.4 °F - 69.8 °F 88% 29.86 in 10.0 mi SSW 16.1 mph 25.3 mph N/A   Clear
5:35 AM 75.2 °F - 69.8 °F 83% 29.89 in 8.0 mi SSW 15.0 mph 20.7 mph N/A   Mostly Cloudy
5:55 AM 75.2 °F - 69.8 °F 83% 29.90 in 8.0 mi SSW 15.0 mph 19.6 mph N/A   Overcast
6:15 AM 75.2 °F - 69.8 °F 83% 29.89 in 10.0 mi SSW 17.3 mph 24.2 mph N/A   Scattered Clouds
6:35 AM 75.2 °F - 69.8 °F 83% 29.89 in 9.0 mi SSW 18.4 mph 25.3 mph N/A   Clear
6:55 AM 75.2 °F - 69.8 °F 83% 29.89 in 9.0 mi SSW 20.7 mph 25.3 mph N/A   Clear
7:15 AM 75.2 °F - 69.8 °F 83% 29.89 in 10.0 mi SSW 17.3 mph 24.2 mph N/A   Clear
7:35 AM 75.2 °F - 69.8 °F 83% 29.90 in 9.0 mi SSW 20.7 mph - N/A   Clear
7:55 AM 77.0 °F - 69.8 °F 78% 29.90 in 10.0 mi SSW 20.7 mph 24.2 mph N/A   Clear
8:15 AM 78.8 °F - 69.8 °F 74% 29.91 in 10.0 mi SSW 19.6 mph 27.6 mph N/A   Clear
8:35 AM 77.0 °F - 68.0 °F 74% 29.91 in 10.0 mi SSW 17.3 mph 26.5 mph N/A   Clear
8:55 AM 77.0 °F - 68.0 °F 74% 29.92 in 10.0 mi SSW 17.3 mph - N/A   Clear
9:15 AM 78.8 °F - 68.0 °F 69% 29.92 in 10.0 mi SSW 18.4 mph 24.2 mph N/A   Clear
9:35 AM 80.6 °F 83.2 °F 68.0 °F 65% 29.92 in 10.0 mi SSW 20.7 mph 26.5 mph N/A   Clear
9:55 AM 80.6 °F 83.2 °F 68.0 °F 65% 29.91 in 10.0 mi SSW 16.1 mph 28.8 mph N/A   Clear
10:15 AM 82.4 °F 85.4 °F 68.0 °F 62% 29.91 in 10.0 mi SSW 20.7 mph 26.5 mph N/A   Clear
10:35 AM 82.4 °F 85.4 °F 68.0 °F 62% 29.90 in 10.0 mi South 17.3 mph 21.9 mph N/A   Clear
10:55 AM 82.4 °F 85.4 °F 68.0 °F 62% 29.90 in 10.0 mi SSW 18.4 mph 26.5 mph N/A   Clear
11:15 AM 82.4 °F 85.4 °F 68.0 °F 62% 29.90 in 10.0 mi SSW 17.3 mph 24.2 mph N/A   Clear
11:35 AM 82.4 °F 85.4 °F 68.0 °F 62% 29.90 in 10.0 mi SW 17.3 mph 26.5 mph N/A   Clear
11:55 AM 84.2 °F 87.3 °F 68.0 °F 58% 29.89 in 9.0 mi SSW 18.4 mph 24.2 mph N/A   Clear
12:15 PM 84.2 °F 87.3 °F 68.0 °F 58% 29.89 in 9.0 mi SSW 18.4 mph 24.2 mph N/A   Clear
12:55 PM 84.2 °F 87.3 °F 68.0 °F 58% 29.88 in 10.0 mi SSW 19.6 mph 26.5 mph N/A   Clear
1:15 PM 84.2 °F 87.3 °F 68.0 °F 58% 29.88 in 10.0 mi SW 16.1 mph - N/A   Clear
1:35 PM 84.2 °F 87.3 °F 68.0 °F 58% 29.88 in 10.0 mi SSW 12.7 mph - N/A   Clear
1:55 PM 84.2 °F 87.3 °F 68.0 °F 58% 29.88 in 10.0 mi SW 15.0 mph 19.6 mph N/A   Clear
2:35 PM 84.2 °F 87.3 °F 68.0 °F 58% 29.87 in 10.0 mi SSW 15.0 mph - N/A   Clear
2:55 PM 86.0 °F 89.4 °F 68.0 °F 55% 29.86 in 10.0 mi SSW 17.3 mph 23.0 mph N/A   Clear
3:15 PM 86.0 °F 89.4 °F 68.0 °F 55% 29.85 in 10.0 mi SSW 18.4 mph 24.2 mph N/A   Clear
3:55 PM 86.0 °F 89.4 °F 68.0 °F 55% 29.83 in 10.0 mi SSW 18.4 mph 25.3 mph N/A   Clear
4:15 PM 86.0 °F 89.4 °F 68.0 °F 55% 29.82 in 10.0 mi SSW 16.1 mph - N/A   Clear
4:35 PM 86.0 °F 88.2 °F 66.2 °F 51% 29.82 in 10.0 mi South 19.6 mph 24.2 mph N/A   Clear
4:55 PM 87.8 °F 90.4 °F 66.2 °F 49% 29.81 in 10.0 mi South 19.6 mph 26.5 mph N/A   Clear
5:15 PM 87.8 °F 90.4 °F 66.2 °F 49% 29.79 in 10.0 mi South 19.6 mph 25.3 mph N/A   Clear
5:35 PM 87.8 °F 90.4 °F 66.2 °F 49% 29.78 in 10.0 mi South 17.3 mph 26.5 mph N/A   Clear
6:15 PM 86.0 °F 89.4 °F 68.0 °F 55% 29.79 in 10.0 mi South 18.4 mph 23.0 mph N/A   Clear
6:35 PM 84.2 °F 87.3 °F 68.0 °F 58% 29.79 in 10.0 mi South 16.1 mph 23.0 mph N/A   Clear
6:55 PM 84.2 °F 87.3 °F 68.0 °F 58% 29.78 in 10.0 mi South 16.1 mph 21.9 mph N/A   Clear
7:15 PM 84.2 °F 87.3 °F 68.0 °F 58% 29.77 in 10.0 mi South 15.0 mph 23.0 mph N/A   Clear
7:35 PM 82.4 °F 85.4 °F 68.0 °F 62% 29.78 in 10.0 mi South 17.3 mph 21.9 mph N/A   Clear
7:55 PM 82.4 °F 85.4 °F 68.0 °F 62% 29.77 in 10.0 mi South 15.0 mph - N/A   Clear
8:15 PM 82.4 °F 85.4 °F 68.0 °F 62% 29.78 in 10.0 mi South 12.7 mph - N/A   Clear
8:35 PM 82.4 °F 85.4 °F 68.0 °F 62% 29.79 in 10.0 mi South 12.7 mph - N/A   Clear
8:55 PM 80.6 °F 83.2 °F 68.0 °F 65% 29.81 in 10.0 mi South 12.7 mph - N/A   Clear
9:15 PM 80.6 °F 83.2 °F 68.0 °F 65% 29.82 in 10.0 mi South 11.5 mph - N/A   Clear
9:35 PM 80.6 °F 83.2 °F 68.0 °F 65% 29.84 in 10.0 mi South 10.4 mph - N/A   Partly Cloudy
9:55 PM 80.6 °F 83.2 °F 68.0 °F 65% 29.85 in 10.0 mi South 10.4 mph - N/A   Partly Cloudy
10:15 PM 78.8 °F - 68.0 °F 69% 29.85 in 10.0 mi South 8.1 mph - N/A Thunderstorm Clear
10:35 PM 78.8 °F - 68.0 °F 69% 29.85 in 10.0 mi SSE 9.2 mph - N/A   Partly Cloudy
10:55 PM 78.8 °F - 68.0 °F 69% 29.84 in 10.0 mi South 12.7 mph - N/A   Mostly Cloudy
11:15 PM 78.8 °F - 68.0 °F 69% 29.83 in 10.0 mi South 11.5 mph 17.3 mph N/A   Mostly Cloudy
11:35 PM 78.8 °F - 69.8 °F 74% 29.82 in 10.0 mi South 13.8 mph - N/A Thunderstorm Mostly Cloudy
11:55 PM 78.8 °F - 69.8 °F 74% 29.82 in 10.0 mi South 12.7 mph - N/A Thunderstorm Partly Cloudy